Showing default

LEMUR 2 MJR092620, 58340

Orbit data source: Space-Track

LEMUR 2 MJR092620, 58340 is an American payload satellite in SSO that was launched on Sat, 11 Nov 2023 UTC via an FALCON 9 launch vehicle from the Air Force Western Test Range (AFWTR). Payload-class satellites include a variety of spacecraft equipped with specific instruments for various scientific and technological missions. These include communications satellites like Starlink; space stations such as the ISS; scientific satellites like the Hubble; Earth observation satellites from companies like Planet Labs, Umbra, and HawkEye 360; GPS; miniature CubeSats for education and research; and military/defense satellites.

Loading next visibility...
Identifier
58340, 2023-174CN
Orbit
SSO
Country
Flag of USUS
Related business
Manufacturer
Spire/Glasgow
Mission
Operational Commercial Earth Obs Sci
Bus & Motor
CUBESAT 16U, Unknown motor
Mass
~20 kg wet, ~20 kg dry
Launch date (UTC)
2023-11-11 (2 years ago)
Launch vehicle
FALCON 9
Launch site
Air Force Western Test Range (AFWTR)
Object type
Payload
Rocket body
Debris
Shape & HBR
Box, 0.2 m
Radar Cross Section
0.240 m², Medium (>0.1 m² and < 1m²)

Expand to show TLE details & history
Last TLE update: 14 hours ago

TLE from 14 hours ago
0 LEMUR 2 MJR092620
1 58340U 23174CN  25288.54437620  .00013865  00000-0  37526-3 0  9992
2 58340  97.4144  10.1906 0006068 281.1698  78.8865 15.37788229107960
Epoch: 2025-10-15T13:03Z
TLE epoch observation values (Epoch: 2025-10-15T13:03:54.103Z)
Latitude
0.00002°
Longitude
149.89824°
Altitude
454.969 km
Speed
7.64 km/s
True Right ascension
00h 40m 45s
True Declination
0° 00' 00"
Sunlit
Object was in full shadow at epoch
Visualization orbit readout
Latitude
Unknown
Longitude
Unknown
Altitude
Unknown
Speed
Unknown
Apparent Right ascension
Unknown
Apparent Declination
Unknown
Sunlit
N/A
Visualization observer readout
Local Sidereal Time
21:58:57
Azimuth
Unknown
Elevation
Unknown
Doppler factor
Unknown
Orbital elements
Apogee altitude
453.737 km
Perigee altitude
445.451 km
Semi-major axis
6,827.731 km
Eccentricity
0.00061
Inclination
97.4144°
RAAN
10.1906°
Arg. of periapsis
281.1698°
True anomaly
78.95474°
Mean anomaly
78.8865°
Eccentric anomaly
78.92062°
Mean motion
3.84706 °/min
Orbital period
93.58 mins
BSTAR
0.00037526
Loading maneuver chart data...
Computing Atmospheric mass density...
Loading historical data...
Loading historical data...
Loading historical data...
Loading historical data...
Loading historical data...
Loading historical data...
Loading historical data...

Documentation

Showing up to 5 results
|